This demonstration page uses our WeatherBlox Daily Observations layout. Learn more.

38.89511, -77.03637

Hourly Observations for October 21, 2020

Temp ( °F °C ) Dew Point ( °F °C ) Humidity (%) Winds ( mph kmh ) Pressure ( in mb ) Visibility ( mi km ) Precip ( " mm )
12:52 am 00:52 Mostly Clear 63 17.2 61 16.1 93 93 Calm 30.23 1024 7 11.26538 0 0
1:52 am 01:52 Mostly Cloudy 63 17.2 61 16.1 93 93 Calm 30.22 1024 9 14.48406 0 0
4:52 am 04:52 Mostly Cloudy with Fog 63 17.2 62 16.7 97 97 Calm 30.24 1024 0.12 0.2 0 0
5:41 am 05:41 Mostly Cloudy with Drizzle 63 17.2 62 16.7 97 97 SE 5 8 30.24 1024 0.12 0.2 0 0.00030000001424924
5:52 am 05:52 Mostly Cloudy with Drizzle 63 17.2 62 16.7 97 97 SSE 5 8 30.24 1024 0.12 0.2 0 0.00030000001424924
6:23 am 06:23 Mostly Cloudy with Drizzle 63 17.2 62 16.7 97 97 Calm 30.25 1024 0.12 0.2 0 0
7:52 am 07:52 Mostly Cloudy with Drizzle 64 17.8 63 17.2 96 96 SSW 6 9 30.27 1025 0.25 0.402335 0.001 0.001
8:36 am 08:36 Cloudy with Mist and Fog 64 17.8 63 17.2 96 96 S 6 9 30.28 1025 0.75 1.207005 0.001 0.001
8:52 am 08:52 Cloudy with Fog 64 17.8 64 17.8 100 100 SSW 7 11 30.28 1026 0.5 0.80467 0.001 0.001
9:29 am 09:29 Mostly Cloudy with Fog 64 17.8 64 17.8 100 100 S 5 7 30.29 1026 1 1.60934 0 0
9:46 am 09:46 Mostly Cloudy with Fog 64 18 64 18 100 100 S 8 13 30.29 1026 0.25 0.402335 0 0
9:52 am 09:52 Mostly Cloudy with Fog 65 18.3 64 17.8 97 97 S 9 15 30.29 1026 0.5 0.80467 0 0
10:27 am 10:27 Cloudy with Mist and Fog 66 18.9 65 18.3 96 96 S 7 11 30.29 1026 1 1.60934 0 0
10:34 am 10:34 Cloudy with Mist and Fog 66 18.9 65 18.3 96 96 S 9 15 30.29 1026 2.5 4.02335 0 0
10:52 am 10:52 Cloudy with Mist and Fog 66 18.9 65 18.3 96 96 S 9 15 30.28 1026 4 6.43736 0 0
11:07 am 11:07 Cloudy with Mist and Fog 66 18.9 65 18.3 96 96 S 8 13 30.29 1026 6 9.65604 0 0
11:52 am 11:52 Cloudy 67 19.4 66 18.9 97 97 S 7 11 30.28 1025 7 11.26538 0 0
12:52 pm 12:52 Cloudy 70 21.1 67 19.4 90 90 S 7 11 30.25 1024 10 16.0934 0 0
1:07 pm 13:07 Cloudy 71 21.7 66 18.9 84 84 S 6 9 30.25 1024 10 16.0934 0 0
1:52 pm 13:52 Mostly Cloudy 72 22.2 67 19.4 84 84 S 7 11 30.22 1024 10 16.0934 0 0
2:07 pm 14:07 Partly Cloudy 73 22.8 67 19.4 81 81 S 9 15 30.22 1023 10 16.0934 0 0
2:52 pm 14:52 Partly Cloudy 74 23.3 67 19.4 79 79 SSE 7 11 30.21 1023 10 16.0934 0 0
2:57 pm 14:57 Mostly Cloudy 75 23.9 67 19.4 76 76 S 8 13 30.21 1023 10 16.0934 0 0
3:30 pm 15:30 Mostly Cloudy 75 23.9 67 19.4 76 76 S 7 11 30.2 1023 10 16.0934 0 0
3:52 pm 15:52 Partly Cloudy 75 23.9 67 19.4 76 76 S 8 13 30.19 1023 10 16.0934 0 0
4:52 pm 16:52 Partly Cloudy 75 23.9 67 19.4 76 76 S 9 15 30.19 1022 10 16.0934 0 0
5:52 pm 17:52 Partly Cloudy 74 23.3 67 19.4 79 79 S 5 7 30.19 1023 10 16.0934 0 0
6:52 pm 18:52 Partly Cloudy 72 22.2 66 18.9 82 82 Calm 30.21 1023 10 16.0934 0 0
7:52 pm 19:52 Partly Cloudy 71 21.7 66 18.9 84 84 Calm 30.22 1023 10 16.0934 0 0
8:52 pm 20:52 Partly Cloudy 69 20.6 66 18.9 90 90 SSW 5 7 30.22 1024 10 16.0934 0 0
9:52 pm 21:52 Partly Cloudy 68 20 66 18.9 93 93 SW 3 6 30.23 1024 10 16.0934 0 0
10:52 pm 22:52 Clear 67 19.4 65 18.3 93 93 SSW 5 7 30.23 1024 10 16.0934 0 0
11:52 pm 23:52 Clear 67 19.4 65 18.3 93 93 Calm 30.23 1024 10 16.0934 0 0

Powered by AerisWeather